Flag for India Weather past 2 weeks in Sivaganga, Tamil Nadu, India

Now
95 °F

Haze.


Feels Like: 103 °F
Forecast: 81 / 101 °F
Wind: 13 mph from West

Location: Tiruchchirapalli

Current Time: May 27, 2015 at 11:42:54 AM

Latest Report: May 27, 2015 at 11:10 AM


Visibility: 3 mi

Pressure: 29.77 "Hg

Humidity: 47%

Dew point: 72 °F

Location of SivagangaLocation

Historic Weather in Sivaganga — Graph

°F

Sivaganga temperature yesterday

Maximum temperature yesterday: 102 °F (at 3:10 PM)
Minimum temperature yesterday: 82 °F (at 4:40 AM)
Average temperature yesterday: 91 °F

Past Weeks' High & Low Weather Summary

 TemperatureHumidityPressure
High102 °F (May 26, 3:10 PM)100% (May 12, 5:40 PM)29.83 "Hg (May 12, 5:40 PM)
Low75 °F (May 13, 5:40 AM)35% (May 26, 3:10 PM)29.65 "Hg (May 17, 4:10 AM)
Average87 °F73%29.74 "Hg
* Reported May 12 9:40 AM — May 27 10:10 AM, Sivaganga, Weather by CustomWeather, © 2015

Note: Actual official high and low records may vary slightly from our data, if they occured in-between our weather recording intervals... More about our weather records

Advertising

Sivaganga weather history for previous 24 hours

 ConditionsComfort  
Time TempWeatherWind HumidityBarometerVisibility
10:10 AM
Wed, May 27
91 °FHaze.12 mph52%29.77 "Hg3 mi
9:40 AM91 °FHaze.13 mph52%29.77 "Hg3 mi
9:10 AM90 °FScattered clouds.10 mph55%29.80 "Hg3 mi
8:40 AM88 °FScattered clouds.9 mph59%29.77 "Hg3 mi
8:10 AM86 °FScattered clouds.13 mph62%29.77 "Hg3 mi
7:40 AM84 °FHaze.10 mph70%29.77 "Hg3 mi
6:40 AM82 °FPassing clouds.7 mph70%29.74 "Hg4 mi
6:10 AM82 °FPassing clouds.6 mph74%29.74 "Hg4 mi
5:40 AM82 °FPassing clouds.5 mph74%29.74 "Hg4 mi
5:10 AM82 °FPassing clouds.5 mph74%29.71 "Hg4 mi
4:40 AM84 °FPassing clouds.5 mph70%29.71 "Hg4 mi
4:10 AM84 °FPassing clouds.6 mph74%29.71 "Hg4 mi
3:40 AM84 °FPassing clouds.7 mph74%29.71 "Hg4 mi
2:40 AM86 °FPassing clouds.6 mph66%29.71 "Hg4 mi
2:10 AM86 °FPassing clouds.5 mph70%29.74 "Hg4 mi
1:40 AM86 °FPassing clouds.5 mph70%29.74 "Hg4 mi
1:10 AM88 °FPassing clouds.2 mph66%29.74 "Hg4 mi
12:40 AM88 °FPassing clouds.3 mph66%29.74 "Hg4 mi
12:10 AM88 °FPassing clouds.3 mph66%29.77 "Hg4 mi
11:40 PM
Tue, May 26
88 °FPassing clouds.3 mph66%29.77 "Hg4 mi
11:10 PM88 °FPassing clouds.3 mph62%29.77 "Hg4 mi
10:40 PM90 °FPassing clouds.5 mph52%29.77 "Hg4 mi
10:10 PM90 °FPassing clouds.5 mph52%29.77 "Hg4 mi
9:10 PM90 °FPassing clouds.5 mph52%29.77 "Hg4 mi
8:40 PM91 °FPassing clouds.5 mph46%29.74 "Hg4 mi
8:10 PM91 °FPassing clouds.5 mph46%29.74 "Hg4 mi
7:40 PM91 °FPassing clouds.7 mph46%29.71 "Hg4 mi
7:10 PM93 °FPassing clouds.7 mph44%29.68 "Hg4 mi
6:40 PM95 °FPassing clouds.7 mph39%29.68 "Hg5 mi
6:10 PM95 °FPassing clouds.7 mph39%29.68 "Hg5 mi
5:40 PM99 °FPassing clouds.7 mph37%29.68 "HgN/A
5:10 PM100 °FPassing clouds.6 mph37%29.68 "HgN/A
4:40 PM102 °FPassing clouds.8 mph35%29.68 "HgN/A
4:10 PM102 °FPassing clouds.10 mph35%29.68 "HgN/A
3:40 PM102 °FPassing clouds.12 mph35%29.68 "HgN/A
3:10 PM102 °FPassing clouds.14 mph35%29.68 "HgN/A
2:40 PM100 °FPassing clouds.13 mph37%29.68 "HgN/A
2:10 PM99 °FPassing clouds.14 mph44%29.68 "Hg5 mi
1:40 PM99 °FPassing clouds.16 mph44%29.71 "Hg5 mi
1:10 PM97 °FPassing clouds.16 mph47%29.71 "Hg5 mi
12:40 PM97 °FPassing clouds.14 mph47%29.74 "Hg5 mi
12:10 PM95 °FPassing clouds.14 mph50%29.74 "Hg4 mi
11:40 AM93 °FPassing clouds.14 mph49%29.77 "Hg4 mi
11:10 AM91 °FPassing clouds.14 mph59%29.80 "Hg4 mi
Weather by CustomWeather, © 2015

See weather overviewHow to use our weather pages